TimeMDT,TemperatureF,Dew PointF,Humidity,Sea Level PressureIn,VisibilityMPH,Wind Direction,Wind SpeedMPH,Gust SpeedMPH,PrecipitationIn,Events,Conditions,WindDirDegrees,DateUTC
12:48 AM,77.0,46.0,33,29.83,-9999.0,North,9.2,-,N/A,,Unknown,10,2013-09-03 06:48:00
1:48 AM,75.9,46.9,36,29.82,-9999.0,NNE,12.7,-,N/A,,Unknown,20,2013-09-03 07:48:00
2:48 AM,72.0,50.0,46,29.84,-9999.0,Calm,Calm,-,N/A,,Unknown,0,2013-09-03 08:48:00
3:48 AM,79.0,48.0,34,29.83,-9999.0,SE,9.2,-,N/A,,Unknown,140,2013-09-03 09:48:00
4:48 AM,75.0,48.0,38,29.82,-9999.0,Calm,Calm,-,N/A,,Unknown,0,2013-09-03 10:48:00
5:48 AM,71.1,51.1,49,29.84,-9999.0,SW,8.1,-,N/A,,Unknown,220,2013-09-03 11:48:00
6:48 AM,70.0,51.1,51,29.87,-9999.0,West,5.8,-,N/A,,Unknown,280,2013-09-03 12:48:00
7:48 AM,70.0,52.0,53,29.88,-9999.0,West,3.5,-,N/A,,Unknown,280,2013-09-03 13:48:00
8:48 AM,75.9,52.0,43,29.89,-9999.0,West,4.6,-,N/A,,Unknown,280,2013-09-03 14:48:00
9:48 AM,84.0,50.0,31,29.89,-9999.0,Calm,Calm,-,N/A,,Unknown,0,2013-09-03 15:48:00
10:48 AM,84.9,48.9,29,29.90,-9999.0,Calm,Calm,-,N/A,,Unknown,0,2013-09-03 16:48:00
11:48 AM,90.0,51.1,26,29.89,-9999.0,Calm,Calm,-,N/A,,Unknown,0,2013-09-03 17:48:00
1:48 PM,93.0,50.0,23,29.88,-9999.0,South,9.2,18.4,N/A,,Unknown,190,2013-09-03 19:48:00
2:48 PM,93.2,50.0,23,29.95,-9999.0,South,9.2,17.3,N/A,,Unknown,180,2013-09-03 20:48:00
3:48 PM,95.0,48.9,21,29.87,-9999.0,SE,8.1,-,N/A,,Unknown,140,2013-09-03 21:48:00
4:48 PM,93.9,50.0,22,29.88,-9999.0,Variable,4.6,-,N/A,,Unknown,0,2013-09-03 22:48:00
5:48 PM,93.0,48.9,22,29.89,-9999.0,ESE,3.5,-,N/A,,Unknown,120,2013-09-03 23:48:00
6:48 PM,89.1,52.0,28,29.89,-9999.0,SSE,5.8,-,N/A,,Unknown,160,2013-09-04 00:48:00
7:48 PM,82.0,53.1,37,29.91,-9999.0,Calm,Calm,-,N/A,,Unknown,0,2013-09-04 01:48:00
8:48 PM,77.0,52.0,42,29.93,-9999.0,East,3.5,-,N/A,,Unknown,100,2013-09-04 02:48:00
9:48 PM,75.0,51.1,43,29.94,-9999.0,Calm,Calm,-,N/A,,Unknown,0,2013-09-04 03:48:00
10:48 PM,70.0,52.0,53,29.96,-9999.0,Calm,Calm,-,N/A,,Unknown,0,2013-09-04 04:48:00
11:48 PM,71.1,52.0,51,29.95,-9999.0,Calm,Calm,-,N/A,,Unknown,0,2013-09-04 05:48:00